KLM315 LFKJ-LFML

Flight info

Callsign KLM315
Flight time 0h 46m
Altitude 28000
Route VAREK W54 STP A3 RUBIT G7 LANKO
Aircraft B738/M-SDE2E3FGHIRWXY/LB1

Departure

Time 2026-04-24 09:40
Airport Ajaccio Napoléon Bonaparte airport (LFKJ)

Arrival

Time 2026-04-24 10:26
Airport Marseille Provence Airport (LFML)
Time Latitude Longitude Altitude Speed Heading
2026-04-24 09:18 41.92024 8.79605 26 ft 0 kts 345°
2026-04-24 09:37 41.92026 8.79605 26 ft 2 kts 348°
2026-04-24 09:37 41.92065 8.79662 26 ft 14 kts 59°
2026-04-24 09:37 41.92126 8.79742 26 ft 11 kts 27°
2026-04-24 09:37 41.92244 8.79819 26 ft 27 kts 25°
2026-04-24 09:38 41.92416 8.79924 26 ft 25 kts 25°
2026-04-24 09:38 41.92560 8.80013 26 ft 21 kts 25°
2026-04-24 09:38 41.92703 8.80103 26 ft 25 kts 27°
2026-04-24 09:38 41.92834 8.80232 26 ft 21 kts 44°
2026-04-24 09:39 41.92937 8.80376 26 ft 21 kts 47°
2026-04-24 09:39 41.92937 8.80537 26 ft 16 kts 127°
2026-04-24 09:39 41.92868 8.80538 26 ft 8 kts 206°
2026-04-24 09:39 41.92743 8.80459 26 ft 49 kts 205°
2026-04-24 09:40 41.92164 8.80101 26 ft 132 kts 205°
2026-04-24 09:40 41.91197 8.79504 544 ft 161 kts 206°
2026-04-24 09:40 41.90255 8.78769 1605 ft 157 kts 218°
2026-04-24 09:40 41.89417 8.77802 2382 ft 166 kts 223°
2026-04-24 09:41 41.88433 8.76737 2887 ft 195 kts 215°
2026-04-24 09:41 41.87222 8.75691 3279 ft 223 kts 212°
2026-04-24 09:41 41.85813 8.74577 3379 ft 249 kts 210°
2026-04-24 09:41 41.84271 8.73329 3432 ft 261 kts 213°
2026-04-24 09:42 41.82753 8.71982 4469 ft 261 kts 213°
2026-04-24 09:42 41.81241 8.70616 5569 ft 264 kts 213°
2026-04-24 09:42 41.79711 8.69235 6573 ft 267 kts 213°
2026-04-24 09:42 41.78150 8.67831 7478 ft 276 kts 213°
2026-04-24 09:43 41.76521 8.66368 8271 ft 287 kts 213°
2026-04-24 09:43 41.75416 8.65376 8888 ft 291 kts 212°
2026-04-24 09:43 41.73721 8.63810 9820 ft 296 kts 218°
2026-04-24 09:43 41.72395 8.61676 10677 ft 305 kts 241°
2026-04-24 09:44 41.71642 8.57963 11391 ft 328 kts 269°
2026-04-24 09:44 41.71793 8.55881 11734 ft 338 kts 284°
2026-04-24 09:44 41.72712 8.52976 12452 ft 343 kts 304°
2026-04-24 09:44 41.74231 8.50525 13297 ft 347 kts 315°
2026-04-24 09:45 41.75811 8.48050 14127 ft 353 kts 308°
2026-04-24 09:45 41.77179 8.45309 14991 ft 356 kts 302°
2026-04-24 09:45 41.78398 8.42441 15925 ft 357 kts 300°
2026-04-24 09:45 41.79597 8.39503 16799 ft 359 kts 300°
2026-04-24 09:46 41.80817 8.36550 17430 ft 368 kts 300°
2026-04-24 09:46 41.82109 8.33491 18019 ft 377 kts 303°
2026-04-24 09:46 41.83740 8.30752 18734 ft 378 kts 317°
2026-04-24 09:46 41.85785 8.28586 19646 ft 373 kts 328°
2026-04-24 09:47 41.88020 8.26860 20550 ft 370 kts 333°
2026-04-24 09:47 41.90309 8.25304 21375 ft 369 kts 334°
2026-04-24 09:47 41.92630 8.23793 22056 ft 372 kts 333°
2026-04-24 09:47 41.94964 8.22266 22713 ft 375 kts 334°
2026-04-24 09:48 41.97310 8.20724 23354 ft 377 kts 334°
2026-04-24 09:48 41.99671 8.19166 23946 ft 381 kts 333°
2026-04-24 09:48 42.02044 8.17596 24513 ft 384 kts 332°
2026-04-24 09:48 42.04477 8.16002 24872 ft 393 kts 331°
2026-04-24 09:49 42.06972 8.14357 25037 ft 407 kts 330°
2026-04-24 09:49 42.09544 8.12654 25610 ft 408 kts 330°
2026-04-24 09:49 42.12050 8.10988 26366 ft 404 kts 331°
2026-04-24 09:49 42.14575 8.09305 27246 ft 396 kts 331°
2026-04-24 09:50 42.17034 8.07663 27809 ft 396 kts 331°
2026-04-24 09:50 42.19508 8.06008 28111 ft 398 kts 331°
2026-04-24 09:50 42.24464 8.02688 28200 ft 402 kts 332°
2026-04-24 09:51 42.27001 8.00987 28202 ft 413 kts 332°
2026-04-24 09:51 42.29508 7.99052 28201 ft 419 kts 325°
2026-04-24 09:51 42.33973 7.93967 28201 ft 423 kts 313°
2026-04-24 09:52 42.38004 7.88112 28200 ft 431 kts 309°
2026-04-24 09:52 42.42124 7.81941 28201 ft 448 kts 309°
2026-04-24 09:53 42.46332 7.75622 28201 ft 454 kts 309°
2026-04-24 09:53 42.50547 7.69276 28200 ft 457 kts 310°
2026-04-24 09:54 42.54815 7.62844 28203 ft 459 kts 310°
2026-04-24 09:54 42.59054 7.56507 28205 ft 451 kts 309°
2026-04-24 09:55 42.63205 7.50264 28209 ft 442 kts 309°
2026-04-24 09:55 42.67308 7.44070 28219 ft 436 kts 309°
2026-04-24 09:56 42.71307 7.38013 28225 ft 422 kts 312°
2026-04-24 09:56 42.75179 7.32136 28229 ft 421 kts 314°
2026-04-24 09:57 42.79134 7.26117 28230 ft 424 kts 314°
2026-04-24 09:57 42.83045 7.20153 28230 ft 424 kts 314°
2026-04-24 09:58 42.86962 7.14165 28230 ft 424 kts 314°
2026-04-24 09:58 42.90876 7.08170 28230 ft 424 kts 314°
2026-04-24 09:59 42.94780 7.02178 28230 ft 424 kts 314°
2026-04-24 09:59 42.98689 6.96165 28230 ft 424 kts 314°
2026-04-24 10:00 43.02603 6.90165 28230 ft 424 kts 314°
2026-04-24 10:00 43.06513 6.84144 28230 ft 424 kts 314°
2026-04-24 10:01 43.10431 6.78071 28230 ft 424 kts 313°
2026-04-24 10:01 43.14318 6.72025 28230 ft 424 kts 313°
2026-04-24 10:02 43.18202 6.65971 28230 ft 423 kts 313°
2026-04-24 10:02 43.19960 6.62811 28154 ft 412 kts 303°
2026-04-24 10:02 43.21097 6.59277 27887 ft 406 kts 289°
2026-04-24 10:03 43.21818 6.55560 27459 ft 402 kts 287°
2026-04-24 10:03 43.22239 6.51768 26770 ft 408 kts 274°
2026-04-24 10:03 43.22195 6.47810 25999 ft 414 kts 269°
2026-04-24 10:03 43.22169 6.43862 25493 ft 411 kts 272°
2026-04-24 10:04 43.22220 6.39968 25094 ft 406 kts 272°
2026-04-24 10:04 43.22287 6.36113 24565 ft 405 kts 272°
2026-04-24 10:04 43.22347 6.32282 24180 ft 400 kts 272°
2026-04-24 10:04 43.22402 6.28460 23892 ft 392 kts 272°
2026-04-24 10:05 43.22453 6.24750 23338 ft 392 kts 272°
2026-04-24 10:05 43.22502 6.21018 22844 ft 390 kts 272°
2026-04-24 10:05 43.22550 6.17341 22581 ft 382 kts 272°
2026-04-24 10:05 43.22594 6.13733 22221 ft 376 kts 271°
2026-04-24 10:06 43.22611 6.10157 21742 ft 375 kts 272°
2026-04-24 10:06 43.22685 6.03084 20870 ft 369 kts 272°
2026-04-24 10:06 43.22817 5.99595 20460 ft 365 kts 276°
2026-04-24 10:07 43.23121 5.96172 20035 ft 362 kts 279°
2026-04-24 10:07 43.23495 5.92768 19547 ft 361 kts 279°
2026-04-24 10:07 43.23869 5.89344 19131 ft 357 kts 279°
2026-04-24 10:07 43.24221 5.85985 18702 ft 355 kts 279°
2026-04-24 10:08 43.24560 5.82636 18223 ft 354 kts 279°
2026-04-24 10:08 43.24893 5.79292 17646 ft 357 kts 279°
2026-04-24 10:08 43.25224 5.75910 17126 ft 358 kts 278°
2026-04-24 10:08 43.25551 5.72533 16676 ft 357 kts 278°
2026-04-24 10:09 43.25874 5.69168 16273 ft 355 kts 278°
2026-04-24 10:09 43.26194 5.65831 15838 ft 353 kts 278°
2026-04-24 10:09 43.26512 5.62512 15421 ft 352 kts 277°
2026-04-24 10:09 43.26821 5.59196 15037 ft 349 kts 276°
2026-04-24 10:10 43.27140 5.55898 14695 ft 345 kts 278°
2026-04-24 10:10 43.27529 5.52648 14341 ft 341 kts 279°
2026-04-24 10:10 43.27886 5.49715 14032 ft 338 kts 278°
2026-04-24 10:10 43.28272 5.46502 13624 ft 336 kts 278°
2026-04-24 10:11 43.28658 5.43388 13213 ft 335 kts 279°
2026-04-24 10:11 43.29045 5.40216 12808 ft 333 kts 278°
2026-04-24 10:11 43.29419 5.37087 12413 ft 332 kts 278°
2026-04-24 10:11 43.29785 5.33961 12019 ft 330 kts 278°
2026-04-24 10:12 43.30143 5.30860 11629 ft 329 kts 278°
2026-04-24 10:12 43.30496 5.27775 11237 ft 328 kts 277°
2026-04-24 10:12 43.30842 5.24727 10958 ft 317 kts 277°
2026-04-24 10:12 43.31171 5.21813 10813 ft 302 kts 277°
2026-04-24 10:13 43.31486 5.19008 10498 ft 294 kts 277°
2026-04-24 10:13 43.31798 5.16220 10096 ft 291 kts 277°
2026-04-24 10:13 43.32102 5.13496 9665 ft 288 kts 277°
2026-04-24 10:13 43.32406 5.10777 9235 ft 286 kts 277°
2026-04-24 10:14 43.32705 5.08092 8787 ft 285 kts 277°
2026-04-24 10:14 43.33015 5.05424 8356 ft 283 kts 281°
2026-04-24 10:14 43.33813 5.02964 7998 ft 285 kts 307°
2026-04-24 10:14 43.35349 5.01341 7723 ft 281 kts 339°
2026-04-24 10:15 43.37256 5.01056 7421 ft 277 kts 10°
2026-04-24 10:15 43.39076 5.01763 7096 ft 273 kts 17°
2026-04-24 10:15 43.40944 5.02265 6775 ft 274 kts
2026-04-24 10:15 43.42834 5.02258 6476 ft 273 kts 352°
2026-04-24 10:16 43.44594 5.01355 6153 ft 272 kts 325°
2026-04-24 10:16 43.45916 4.99523 5891 ft 270 kts 308°
2026-04-24 10:16 43.47116 4.97518 5581 ft 268 kts 312°
2026-04-24 10:16 43.48411 4.95675 5283 ft 267 kts 315°
2026-04-24 10:17 43.49742 4.93910 4977 ft 266 kts 316°
2026-04-24 10:17 43.51071 4.92155 4678 ft 264 kts 316°
2026-04-24 10:17 43.52386 4.90410 4384 ft 263 kts 316°
2026-04-24 10:17 43.53697 4.88664 4099 ft 261 kts 316°
2026-04-24 10:18 43.54997 4.86929 4027 ft 262 kts 316°
2026-04-24 10:18 43.56311 4.85189 3998 ft 259 kts 319°
2026-04-24 10:18 43.57840 4.84112 3944 ft 244 kts 352°
2026-04-24 10:18 43.59430 4.84465 3938 ft 226 kts 30°
2026-04-24 10:19 43.60446 4.85952 3946 ft 208 kts 63°
2026-04-24 10:19 43.60869 4.87809 3959 ft 196 kts 80°
2026-04-24 10:19 43.61260 4.89589 3957 ft 192 kts 67°
2026-04-24 10:19 43.61787 4.91077 3969 ft 190 kts 63°
2026-04-24 10:20 43.62007 4.92884 3963 ft 188 kts 101°
2026-04-24 10:20 43.61533 4.94539 4028 ft 185 kts 120°
2026-04-24 10:20 43.60839 4.96016 4027 ft 182 kts 127°
2026-04-24 10:20 43.60082 4.97365 4045 ft 177 kts 130°
2026-04-24 10:21 43.59331 4.98680 4012 ft 172 kts 128°
2026-04-24 10:21 43.58589 4.99958 3877 ft 170 kts 129°
2026-04-24 10:21 43.57824 5.01183 3659 ft 168 kts 131°
2026-04-24 10:21 43.57032 5.02380 3435 ft 167 kts 131°
2026-04-24 10:22 43.56237 5.03549 3215 ft 168 kts 132°
2026-04-24 10:22 43.55438 5.04706 2995 ft 169 kts 133°
2026-04-24 10:22 43.54614 5.05893 2767 ft 169 kts 133°
2026-04-24 10:22 43.53811 5.07043 2545 ft 169 kts 133°
2026-04-24 10:23 43.53002 5.08200 2321 ft 166 kts 133°
2026-04-24 10:23 43.52213 5.09327 2108 ft 158 kts 134°
2026-04-24 10:23 43.51470 5.10388 1919 ft 151 kts 133°
2026-04-24 10:23 43.50746 5.11420 1704 ft 148 kts 134°
2026-04-24 10:24 43.50033 5.12438 1507 ft 148 kts 134°
2026-04-24 10:24 43.49316 5.13461 1311 ft 148 kts 135°
2026-04-24 10:24 43.48606 5.14472 1115 ft 147 kts 135°
2026-04-24 10:24 43.47897 5.15482 921 ft 146 kts 135°
2026-04-24 10:25 43.47195 5.16483 729 ft 145 kts 135°
2026-04-24 10:25 43.46497 5.17478 536 ft 144 kts 135°
2026-04-24 10:25 43.45798 5.18474 343 ft 144 kts 135°
2026-04-24 10:25 43.45099 5.19466 138 ft 144 kts 135°
2026-04-24 10:26 43.44413 5.20433 19 ft 137 kts 136°
2026-04-24 10:26 43.43944 5.21103 18 ft 51 kts 132°
2026-04-24 10:26 43.43726 5.21421 18 ft 44 kts 135°
2026-04-24 10:26 43.43529 5.21699 18 ft 38 kts 134°
2026-04-24 10:27 43.43371 5.21939 18 ft 25 kts 126°
2026-04-24 10:27 43.43335 5.22081 18 ft 23 kts 90°
2026-04-24 10:27 43.43367 5.22267 18 ft 18 kts 20°
2026-04-24 10:27 43.43488 5.22224 18 ft 21 kts 329°
2026-04-24 10:28 43.43620 5.22122 18 ft 16 kts 334°
2026-04-24 10:28 43.43700 5.22154 18 ft 12 kts 44°
2026-04-24 10:28 43.43763 5.22258 18 ft 16 kts 47°
2026-04-24 10:28 43.43810 5.22330 18 ft 0 kts 47°